Temp
7 7 7 7 7 7 7 7 7 7 7 7 7 7 7 7 7 7 7 7 8 8 8 8 8 9 10 11 12 13 14 15 16 14 14 19 21 21 20 20 20 20 20 20 20 20 20 20 20 21 21 21 20 21 21 21 22 23 22 21 21 21 21 22 24 24 24 25 25 25 26 25 25 25 25 25 24 23 23 23 22 22 22 21 21 21 20 19
7 7 7 7 7 7 7 7 7 7 7 7 7 7 7 7 7 7 7 7 8 8 8 8 8 9 10 12 12 13 13 13 14 13 16 22 21 20 21 20 20 20 20 20 20 20 20 21 20 20 21 21 20 21 22 22 23 23 22 21 22 22 22 23 24 25 25 25 25 25 26 25 25 25 25 24 23 23 23 22 21 21 20 20 20 19 19 18
7 7 7 7 7 7 7 7 7 7 7 7 7 7 7 7 7 7 7 8 8 8 8 8 9 10 12 13 13 13 12 12 15 17 20 22 22 21 21 21 20 20 20 20 20 20 20 21 20 20 21 21 21 21 22 22 23 23 22 21 22 23 23 23 24 25 25 25 26 26 26 25 25 25 25 24 23 23 23 21 21 20 19 19 19 18 18 18
7 7 7 7 7 7 7 7 7 7 7 7 7 7 7 7 7 7 8 8 8 8 8 8 10 11 13 13 14 13 12 13 18 21 22 21 22 22 21 21 20 20 20 20 20 20 20 20 20 21 20 20 21 21 22 23 23 22 22 23 23 24 23 24 25 25 25 24 25 26 26 26 25 25 24 23 23 23 22 22 22 21 20 19 19 18 18 17
7 7 7 7 7 7 7 7 7 7 7 7 7 7 7 7 8 7 7 8 8 8 9 10 11 12 13 13 14 13 13 17 21 21 22 22 22 22 21 21 20 20 20 19 20 20 20 20 20 20 20 20 21 21 22 22 23 23 23 23 24 23 23 25 25 25 25 24 25 27 27 26 25 24 23 24 24 24 23 23 22 21 20 20 19 18 17 17
7 7 7 7 7 7 7 7 7 7 7 7 7 7 7 7 7 7 8 8 8 9 10 11 12 13 14 14 14 13 15 20 21 21 22 22 22 22 21 21 20 20 20 19 20 20 20 20 20 20 20 20 21 22 22 22 23 23 23 24 24 23 23 25 25 26 26 25 27 27 26 26 25 24 23 24 25 24 23 23 22 21 21 20 19 18 18 18
7 7 7 7 7 7 7 7 7 7 7 7 7 7 7 7 7 8 8 8 9 10 11 12 12 13 14 13 13 13 15 19 20 21 22 22 22 22 21 21 20 20 19 19 19 19 20 20 20 20 20 21 21 22 22 22 23 23 23 24 24 23 23 24 24 25 25 26 27 26 26 26 25 24 24 24 24 23 23 23 22 21 20 20 19 18 18 18
7 7 7 7 7 7 7 7 8 8 7 7 8 7 7 7 7 8 8 9 10 11 12 12 13 13 14 13 14 15 17 20 22 22 22 22 22 21 21 20 19 19 19 19 19 19 20 20 20 20 21 21 21 22 22 22 22 22 23 23 24 24 24 24 24 24 25 26 26 26 26 26 25 25 25 25 23 23 23 23 22 21 20 19 19 18 18 18
7 7 7 7 7 7 7 7 7 8 8 7 8 7 7 7 8 8 9 10 12 13 13 13 13 13 13 12 13 18 20 21 22 22 21 22 21 21 21 20 20 19 19 19 19 19 20 21 21 21 21 21 21 22 23 22 22 23 23 23 24 24 24 25 25 24 24 26 26 27 26 25 25 25 25 24 22 22 22 22 21 21 20 19 18 18 18 18
7 7 7 7 7 8 8 8 8 7 8 8 8 7 8 8 9 10 11 12 13 13 13 14 13 13 12 12 14 19 22 22 22 22 21 21 21 21 20 20 20 19 19 19 19 19 20 21 21 21 21 21 22 22 22 23 23 24 23 23 23 23 24 25 25 24 25 25 26 27 26 25 24 25 26 24 22 22 22 22 21 20 20 19 18 18 18 18
7 7 7 8 9 9 9 9 8 8 8 8 8 8 9 10 12 13 13 13 13 13 13 13 13 13 12 13 16 20 22 22 22 22 21 21 21 21 21 20 20 20 20 19 19 20 21 20 20 21 21 21 22 22 23 23 24 24 23 23 23 23 23 24 24 25 25 26 26 27 26 25 25 25 26 23 21 22 22 21 21 21 20 19 19 18 18 17
9 9 9 10 11 11 11 11 10 10 9 9 9 9 10 11 13 14 14 14 13 13 13 12 13 12 12 13 16 20 22 22 22 22 21 21 21 21 22 21 21 21 21 20 20 22 22 20 20 21 21 22 22 22 23 23 23 24 23 23 24 23 24 25 25 25 25 26 26 27 26 25 25 26 25 22 21 22 21 21 21 21 20 19 19 18 18 17
11 11 11 12 13 13 13 13 12 12 11 11 11 10 11 12 13 14 14 14 14 13 13 12 13 12 12 16 19 21 22 21 21 21 21 21 21 22 21 22 22 22 22 21 22 23 22 21 20 21 21 22 22 23 24 23 23 24 24 24 24 24 24 25 25 25 26 25 25 26 23 23 26 24 22 22 22 21 21 21 21 21 20 19 18 18 18 17
13 13 13 14 14 14 14 14 14 13 13 13 13 12 12 12 13 14 14 14 14 14 13 13 12 12 13 18 21 21 21 21 20 21 21 21 21 21 21 21 21 21 22 22 22 22 22 21 20 21 22 22 23 23 23 23 23 23 23 23 22 22 23 24 23 24 26 24 25 26 22 23 26 24 22 22 22 21 21 21 21 21 20 19 18 18 18 17
14 14 14 14 14 14 15 15 15 14 14 14 14 13 13 13 14 14 14 14 14 14 14 13 12 12 14 18 21 21 21 20 21 22 22 22 21 21 22 22 21 22 21 21 22 22 22 21 21 21 23 23 23 23 23 23 23 22 22 22 21 21 22 24 23 24 26 24 24 25 23 23 25 24 23 22 22 22 21 21 21 20 20 19 18 18 18 17
15 15 15 15 15 15 15 15 15 15 15 15 15 14 14 14 14 14 14 14 14 14 13 12 12 12 15 20 22 22 21 21 22 23 23 22 22 22 23 23 23 23 22 21 22 22 22 22 22 22 23 23 22 23 22 22 22 21 21 21 21 21 22 23 24 23 24 24 24 25 24 24 25 25 23 21 22 22 21 21 20 20 20 18 18 18 18 17
15 15 15 15 15 15 15 15 16 15 15 15 15 15 14 14 14 14 14 14 14 14 13 12 12 12 17 21 22 22 22 22 23 23 23 23 23 22 22 22 23 23 22 23 23 22 22 22 22 22 21 21 21 22 21 20 21 21 21 21 20 21 21 22 23 23 23 24 24 24 24 24 25 25 23 21 22 22 21 21 20 20 19 18 18 18 17 17
15 15 15 16 16 16 16 16 16 16 16 15 15 15 14 14 14 14 14 13 13 13 13 12 12 15 19 21 21 21 21 22 23 23 23 23 23 22 22 22 22 22 22 23 23 22 23 22 21 21 21 21 21 21 21 20 21 21 20 21 20 20 21 21 22 23 23 23 23 23 23 24 24 24 24 22 21 22 21 21 20 20 19 19 18 18 17 17
15 16 16 16 16 16 16 16 16 17 16 16 15 15 14 14 14 13 13 13 14 16 17 16 16 18 20 20 20 21 22 22 23 23 23 23 22 22 22 22 22 22 22 22 22 22 22 22 21 21 21 21 22 22 22 21 21 21 21 21 21 20 21 21 22 23 21 22 22 22 22 23 24 24 24 22 21 21 21 20 20 19 19 19 18 18 17 17
16 16 16 16 17 17 17 17 17 17 17 16 15 15 15 15 16 16 14 13 15 18 20 19 18 19 20 20 21 21 22 23 23 23 23 23 23 22 22 22 22 22 22 21 22 21 21 21 21 21 21 22 22 21 21 21 20 21 21 21 21 20 21 22 23 22 20 21 22 21 21 22 23 23 23 23 22 22 21 21 20 19 19 19 18 18 18 18
16 17 17 17 17 17 17 17 17 18 17 17 16 16 17 17 18 18 17 17 16 16 18 19 18 19 20 20 20 21 21 22 23 23 23 23 23 22 22 22 21 21 21 20 21 21 20 21 20 21 21 21 21 20 19 20 20 21 21 21 21 20 22 22 22 22 20 21 21 20 22 22 23 23 23 23 23 24 22 21 20 20 20 19 19 18 18 18
17 17 17 17 18 17 17 18 18 18 17 17 16 16 17 18 19 19 18 18 18 16 17 18 17 18 19 19 20 20 20 20 22 23 23 23 22 22 22 21 21 21 20 20 20 21 20 21 21 21 19 18 19 19 19 21 21 21 21 21 21 20 21 22 22 22 21 22 22 21 22 23 23 23 23 23 24 24 23 21 20 19 19 19 19 18 18 18
17 17 18 18 18 18 18 18 18 18 17 17 16 16 17 19 20 19 19 18 19 18 18 18 18 18 19 20 20 20 20 20 21 23 23 23 22 22 22 21 21 21 21 21 21 20 20 21 22 19 18 19 20 19 20 21 21 21 21 21 21 20 20 21 22 22 21 21 21 22 22 22 23 23 23 23 22 22 23 22 20 19 19 19 19 18 18 18
17 17 18 18 18 18 18 18 18 18 18 17 17 18 19 20 20 20 19 18 18 19 19 19 19 20 21 22 22 21 21 21 22 23 23 23 22 21 22 22 21 21 21 21 20 20 20 21 20 19 19 20 21 20 20 21 21 21 21 21 21 21 21 21 21 21 21 20 20 22 21 21 22 23 24 23 20 21 22 22 22 20 19 19 19 19 18 18
18 18 18 18 18 18 18 18 18 18 18 18 18 19 19 20 20 20 19 17 18 19 20 20 20 21 22 23 22 22 22 22 23 23 22 23 23 22 22 22 21 21 21 20 20 20 21 21 20 20 20 20 21 21 20 21 21 20 21 21 22 22 21 21 20 20 21 21 20 20 20 21 21 21 23 23 21 22 22 21 23 22 19 18 19 19 18 18
18 18 18 18 18 18 18 18 18 18 18 18 19 19 19 19 19 20 18 17 18 20 21 21 21 22 23 23 22 22 22 22 23 23 22 23 23 23 22 21 20 21 21 20 20 20 21 21 21 21 20 19 20 20 20 20 20 20 21 21 21 21 20 20 20 20 20 20 19 19 20 20 20 21 23 23 22 23 22 21 23 23 21 19 19 19 19 18
18 18 18 18 18 18 18 18 18 18 18 19 19 19 19 19 19 19 18 17 19 21 21 21 21 23 23 22 23 23 21 22 23 22 23 23 23 23 22 21 21 21 21 20 20 20 20 22 22 20 20 19 20 20 20 20 21 21 21 21 21 21 21 20 20 20 20 19 19 19 20 20 19 21 22 21 21 23 23 23 23 23 21 19 19 19 18 18
17 18 18 18 18 18 18 18 18 18 18 19 19 19 19 19 19 19 18 18 19 21 21 22 22 23 23 22 23 23 22 22 23 22 22 23 23 23 22 22 22 22 21 20 20 20 19 22 22 21 20 19 20 21 21 20 21 22 21 20 21 21 20 20 20 20 19 19 20 19 19 19 19 21 21 19 20 22 23 23 23 23 22 19 18 18 18 18
17 18 18 18 18 18 18 18 18 18 19 19 19 19 19 19 19 18 18 18 20 21 22 22 22 22 22 22 23 23 22 22 23 23 23 23 23 22 21 22 22 22 21 20 21 21 20 22 21 21 21 20 22 22 21 21 22 22 20 20 20 20 19 19 20 20 19 19 20 20 19 19 19 20 21 19 20 22 23 23 22 22 21 20 19 18 18 18
17 17 18 18 18 18 18 18 19 19 19 19 19 19 19 18 18 18 17 19 20 21 22 22 22 22 22 22 22 22 22 22 23 23 23 23 23 22 21 21 21 21 20 19 20 21 20 20 20 21 22 22 23 21 19 21 21 21 21 21 21 20 19 19 18 19 19 19 20 19 18 19 19 20 20 20 20 22 22 22 21 21 21 20 19 18 18 18
17 17 17 18 18 18 18 18 19 19 19 19 19 19 19 18 18 18 18 19 20 21 21 22 22 22 22 22 22 22 22 22 22 23 23 22 22 22 21 21 21 21 20 20 20 19 20 20 20 22 22 21 22 21 19 19 20 20 21 21 20 20 19 19 19 19 19 19 19 18 17 19 20 20 20 20 20 20 20 21 21 21 21 20 18 18 18 18
17 18 18 18 18 18 18 19 19 19 19 19 18 18 19 18 17 18 19 20 20 20 21 21 21 22 22 21 21 22 22 22 22 22 22 21 21 21 21 21 21 20 20 20 20 20 20 21 20 21 22 21 22 22 20 20 20 20 21 20 19 19 18 19 19 18 18 19 18 17 17 19 19 20 21 20 21 20 19 19 19 19 19 18 18 18 19 18
18 18 18 18 18 18 19 19 19 19 19 18 18 18 19 18 18 18 18 19 20 20 21 21 21 21 21 21 21 21 21 21 21 22 21 21 21 21 20 20 19 20 20 19 19 20 21 21 20 21 22 22 22 22 21 20 20 20 20 20 20 18 17 18 17 16 17 19 17 16 17 19 19 20 20 19 20 19 19 18 18 18 17 17 17 18 19 19
19 18 18 18 19 19 19 19 19 19 18 18 18 19 18 18 18 18 18 19 20 21 21 20 20 21 20 20 20 20 21 21 21 21 20 20 20 20 20 20 19 20 20 18 18 19 20 20 21 22 21 21 22 22 21 21 20 20 19 19 20 19 18 18 18 18 18 18 17 17 18 19 20 20 18 18 18 18 18 18 17 18 17 17 17 17 18 19
19 19 19 19 19 19 20 19 19 19 17 17 19 19 18 18 18 18 19 19 20 20 20 20 20 21 20 19 19 19 20 20 20 20 20 20 20 20 21 21 20 19 20 19 18 18 19 20 21 20 20 21 22 21 21 21 21 19 18 19 20 20 20 18 17 17 18 18 18 18 18 19 19 18 18 17 18 18 17 17 17 18 17 17 17 17 17 17
20 19 19 19 19 20 20 19 19 19 18 18 19 18 18 18 18 18 19 20 20 20 20 20 20 20 19 19 19 19 19 20 20 20 20 19 19 19 20 21 20 19 20 20 19 18 19 20 20 20 20 21 21 21 21 22 21 19 18 20 19 18 20 19 16 15 16 17 17 17 18 19 18 19 18 18 18 17 17 17 17 17 17 17 17 17 17 17
20 19 19 19 20 20 20 19 19 19 18 18 18 18 18 18 19 19 20 20 20 20 20 19 19 19 18 18 18 19 19 20 19 19 19 19 19 19 20 20 20 19 20 20 19 19 19 20 20 20 21 21 19 20 21 20 20 20 19 20 19 18 19 19 18 16 16 17 17 16 18 19 19 19 19 18 18 18 17 17 17 17 17 17 17 17 17 17
19 19 19 19 20 20 19 19 19 18 18 18 18 17 17 19 20 20 20 20 20 20 19 19 19 18 18 18 18 18 19 19 19 19 19 19 19 19 19 20 20 19 18 19 19 18 18 20 20 19 20 20 19 20 21 19 19 20 20 19 19 19 19 18 18 17 16 16 16 16 17 17 18 19 19 18 18 17 17 17 17 17 17 17 17 17 17 17
18 19 19 19 19 20 19 19 19 18 18 18 17 17 17 19 20 20 19 19 19 20 19 19 19 18 18 18 18 18 18 18 18 18 18 19 19 19 19 19 20 19 18 18 19 18 17 18 19 19 18 19 20 20 20 20 19 19 19 18 18 18 18 17 17 17 17 16 16 16 17 17 18 19 19 18 17 17 17 17 17 17 17 17 17 17 17 16
15 18 19 19 19 20 20 19 18 18 18 17 16 17 18 18 19 20 19 19 19 19 19 18 18 18 18 18 18 18 18 18 18 18 18 18 19 19 18 18 19 19 18 19 18 17 17 17 18 19 18 18 19 19 19 19 19 19 19 18 18 18 17 17 17 16 17 17 16 16 16 18 18 17 17 18 17 17 17 17 17 16 16 16 16 16 17 16
14 18 19 19 20 19 19 19 18 16 17 17 16 17 18 18 18 19 19 19 19 19 19 18 18 18 18 18 17 17 17 17 18 18 18 18 18 18 17 16 17 18 19 20 19 17 17 17 17 18 18 18 18 18 18 18 18 19 19 18 18 18 17 17 17 15 16 16 16 15 16 18 17 15 16 17 17 17 17 17 18 17 16 16 15 15 15 15
15 18 18 19 20 19 18 18 16 14 16 17 16 17 18 18 18 18 18 19 19 19 19 18 18 18 18 18 17 17 17 17 17 17 18 18 18 17 16 15 16 18 18 18 18 16 16 16 17 17 17 17 16 16 16 17 17 18 17 17 17 17 17 17 17 16 15 15 15 14 15 17 16 14 16 16 16 16 16 17 17 16 16 15 14 14 14 14
16 17 18 19 19 19 18 18 16 15 16 16 16 17 17 17 18 18 18 18 18 18 18 18 18 18 18 18 17 17 17 17 17 17 17 18 17 15 15 15 16 17 18 17 17 16 16 16 16 16 16 16 17 17 15 15 17 17 16 16 16 16 16 16 16 15 15 15 15 15 15 16 15 14 15 16 16 17 16 16 16 15 15 14 13 13 13 13
14 14 16 17 19 19 18 17 16 15 15 15 15 16 17 17 17 17 17 17 18 18 18 18 18 18 18 17 17 17 17 16 17 16 16 17 16 15 15 15 15 16 17 17 16 17 17 16 16 15 15 16 16 17 16 17 17 16 15 15 15 16 16 15 14 14 15 15 15 16 16 16 15 14 15 16 16 16 16 15 15 14 14 14 13 12 12 12
13 13 14 15 17 17 16 15 14 14 14 14 14 16 16 16 17 17 17 17 17 17 17 17 17 17 17 17 17 16 16 16 16 16 15 14 14 15 15 15 14 15 16 16 16 16 16 15 15 15 15 14 15 15 16 17 16 15 14 14 15 16 16 15 15 15 14 14 14 15 16 16 15 14 15 15 14 15 15 14 14 14 13 13 13 12 12 12
14 15 15 15 15 14 14 13 13 14 14 13 14 15 15 15 16 17 17 16 16 16 16 15 16 16 16 16 16 15 14 14 15 14 14 13 13 14 14 14 14 14 15 15 15 16 15 14 14 15 15 14 15 16 15 15 16 15 15 14 14 15 15 15 15 14 14 14 14 14 15 16 15 14 15 15 13 13 14 13 13 13 13 13 12 11 11 11
13 13 13 13 14 13 13 12 11 12 13 13 14 15 15 15 15 16 17 16 15 15 15 14 14 15 14 14 15 14 13 13 14 13 12 12 12 13 13 14 14 14 14 14 14 15 15 14 14 14 15 15 15 16 15 15 15 16 15 14 14 14 15 15 14 14 14 14 13 14 15 15 15 14 14 14 13 13 13 13 13 13 13 13 12 11 11 11
12 12 10 10 12 13 12 12 11 11 12 13 13 14 14 14 14 14 15 16 15 14 15 14 13 13 13 13 14 14 13 13 13 12 12 12 12 12 13 14 13 13 14 14 14 14 14 14 13 13 14 15 14 14 14 14 15 15 15 14 14 14 14 14 14 14 14 13 14 14 14 15 14 13 13 13 12 13 13 12 12 12 12 11 11 12 11 11
10 10 9 9 10 11 11 11 11 11 12 12 13 13 12 12 12 13 14 15 14 13 14 14 13 12 13 13 13 13 13 13 13 12 11 12 11 11 13 14 13 13 13 13 13 14 13 13 13 12 13 14 14 13 13 13 14 14 14 14 13 13 14 14 14 13 13 13 14 14 13 13 13 12 12 12 11 11 11 11 12 12 11 11 11 11 11 10
8 8 8 8 10 10 11 11 11 12 12 11 12 12 12 11 12 12 13 14 13 13 13 13 13 12 13 13 13 13 13 13 13 12 11 12 12 11 12 12 12 12 13 13 13 13 13 13 12 13 13 13 14 14 13 13 13 13 13 13 13 13 13 13 12 12 12 13 13 12 12 12 12 12 11 11 10 11 12 12 13 12 11 11 12 11 11 11
6 7 7 8 10 10 10 11 10 11 11 10 11 12 11 11 11 11 12 13 13 13 13 13 13 12 12 12 13 13 13 12 13 13 12 12 12 13 12 12 12 12 12 12 13 13 12 12 12 13 12 12 13 14 13 13 13 12 12 12 12 13 13 13 13 13 13 13 13 12 12 12 12 11 10 10 10 12 12 12 13 12 11 11 11 11 11 11
5 6 6 7 10 9 9 10 10 10 11 10 10 11 11 11 11 11 12 13 13 13 13 12 13 12 12 12 13 13 13 13 13 13 13 13 13 13 13 12 12 12 12 12 12 12 12 12 12 12 11 11 13 13 13 13 12 11 12 12 13 14 13 12 13 12 13 13 13 13 13 13 11 10 10 10 10 11 12 12 12 11 10 11 11 11 11 11
Height
797 797 796 795 795 794 793 792 792 790 790 789 788 788 787 787 786 785 785 784 784 784 783 782 782 781 780 779 778 777 775 774 772 772 770 763 761 763 764 765 766 767 767 768 768 768 768 769 769 770 770 771 773 772 770 770 769 773 781 789 792 789 784 777 773 769 768 765 759 754 751 753 753 752 749 750 756 758 760 762 762 761 760 762 764 766 770 773
797 796 796 795 794 793 792 791 791 790 789 788 788 787 787 786 785 785 784 784 784 783 783 781 781 780 779 778 777 776 774 772 771 769 764 759 760 762 763 764 766 766 766 767 768 768 769 770 770 770 771 773 773 772 771 770 769 774 782 789 787 780 775 769 766 763 764 764 759 754 752 753 752 751 750 755 764 762 764 768 767 768 767 767 767 769 772 774
797 796 795 794 793 792 791 790 790 789 788 788 787 787 786 785 785 784 784 783 783 782 782 781 780 779 778 778 776 776 774 772 769 764 759 757 759 760 762 764 765 766 766 767 768 769 770 770 770 771 773 774 774 772 772 771 770 773 779 786 780 772 770 765 762 760 760 761 758 755 752 754 753 750 752 758 766 765 765 768 768 772 772 770 771 771 773 775
796 795 794 794 793 792 791 790 789 789 788 787 787 786 785 785 784 784 783 783 782 782 781 780 780 778 778 777 776 775 774 772 766 759 758 757 758 759 762 763 764 765 766 767 768 769 769 770 770 771 774 776 775 773 774 771 771 773 775 779 773 767 768 761 758 757 757 759 758 756 754 756 753 750 754 758 767 771 767 760 759 765 768 769 771 771 772 774
796 795 794 793 792 791 790 790 789 788 787 787 786 785 785 784 784 783 783 782 782 781 780 780 779 778 777 776 776 774 774 773 764 757 758 758 758 760 761 763 764 765 766 767 768 769 770 770 771 772 775 777 776 774 774 770 769 773 771 770 766 767 768 758 755 755 754 757 757 756 756 756 753 754 757 756 762 764 759 755 753 756 760 762 766 769 772 774
795 794 793 793 791 791 789 789 788 787 786 786 785 785 784 784 783 783 782 782 781 781 780 779 778 778 777 775 775 773 774 772 761 757 758 757 758 759 761 763 764 765 766 767 768 769 770 771 772 775 777 777 776 774 772 769 769 773 770 765 764 766 766 758 755 755 753 755 755 754 754 754 755 759 759 756 757 753 749 751 752 752 753 756 761 767 771 773
795 794 793 792 791 790 789 788 787 786 786 785 785 784 783 783 783 782 782 781 781 780 779 779 778 777 776 776 775 774 775 768 758 757 757 757 759 759 761 762 763 765 766 767 768 770 770 772 774 775 777 777 775 773 770 768 768 772 771 764 762 763 762 757 755 756 755 755 753 752 752 753 757 759 758 756 754 751 749 751 753 754 755 759 763 767 770 772
794 793 792 791 790 789 788 787 786 785 785 784 784 783 782 782 781 781 781 780 780 780 779 779 778 777 776 775 774 774 773 764 757 757 757 757 758 759 761 762 763 765 765 767 768 770 770 772 773 773 777 776 773 772 769 769 770 771 769 763 760 760 758 755 755 755 755 754 752 751 753 754 755 755 756 756 754 752 751 753 757 759 761 764 766 769 771 773
793 792 791 790 789 788 787 786 785 784 784 783 782 782 781 781 780 780 780 780 779 779 779 778 778 777 777 776 775 773 766 759 757 757 757 757 758 759 761 761 763 764 765 767 767 770 771 771 772 771 774 773 771 771 768 771 772 767 765 762 760 758 756 754 753 754 755 754 751 752 756 755 752 753 756 755 754 753 753 756 759 761 764 767 769 770 772 774
792 791 790 789 788 787 786 785 784 783 783 782 781 781 780 780 780 779 779 779 779 779 779 779 778 778 777 776 776 771 761 757 757 756 757 758 758 759 760 761 763 764 765 767 767 768 768 768 769 768 771 771 770 770 768 770 768 762 762 761 759 758 755 754 753 752 754 753 749 751 757 755 752 755 757 755 754 754 756 760 761 763 766 768 770 771 772 774
791 790 789 788 787 787 785 785 784 783 782 781 781 780 779 779 779 779 778 778 778 778 778 778 778 778 777 776 777 770 759 758 758 756 757 758 759 759 760 761 762 763 765 766 766 765 764 765 767 768 771 770 768 769 766 764 762 759 761 760 758 756 755 755 754 752 752 752 749 749 754 756 754 755 755 754 755 755 757 761 763 764 767 769 771 772 773 774
790 789 788 787 787 786 785 784 783 782 782 781 780 779 779 778 778 778 778 778 778 778 778 778 778 777 777 777 775 766 758 759 758 757 758 758 759 759 759 761 761 762 763 764 763 762 763 764 766 770 770 769 769 769 763 759 759 758 759 761 759 756 756 754 752 752 752 752 749 749 759 761 757 756 754 754 756 756 758 761 763 765 768 770 771 772 774 774
789 788 787 787 786 785 784 783 782 782 781 780 780 779 778 778 778 778 778 778 778 778 778 778 778 777 777 773 765 760 759 759 758 758 758 758 759 759 759 760 761 762 762 762 761 761 762 763 766 768 766 767 769 765 760 758 758 758 758 761 761 761 760 755 753 754 752 754 748 752 770 769 758 757 757 756 757 759 761 762 763 765 768 771 772 773 774 775
788 788 787 786 785 784 784 783 782 781 781 780 779 779 778 777 778 777 777 778 777 778 778 778 778 777 777 769 758 758 759 758 758 758 757 758 758 758 759 759 760 761 761 761 760 760 761 762 765 766 764 765 764 760 761 761 760 762 761 763 769 771 766 757 757 757 754 756 749 754 773 769 757 759 758 757 758 761 763 763 763 766 768 771 772 773 774 775
788 787 786 785 784 784 783 783 782 781 781 780 779 779 778 777 777 777 777 777 778 778 777 778 778 777 778 767 756 757 758 757 757 756 757 758 758 758 758 758 759 760 760 760 759 759 761 762 764 766 764 761 761 763 768 767 764 768 769 771 777 777 771 762 758 758 756 756 752 756 771 767 757 758 757 758 759 761 764 764 764 766 768 771 772 773 775 777
787 786 786 785 784 783 782 782 782 781 781 780 779 779 778 778 777 777 777 777 777 778 778 779 778 778 777 766 756 756 756 756 755 755 756 757 757 757 757 758 758 758 759 759 759 759 760 761 762 764 763 762 766 769 773 776 772 774 777 776 777 776 774 767 758 757 757 757 755 757 766 765 757 755 756 759 759 760 764 764 765 766 768 770 772 773 775 777
787 786 785 784 783 783 782 781 781 781 780 780 779 778 778 777 777 777 777 777 778 778 778 778 778 779 772 759 757 757 756 755 754 754 755 756 757 757 757 758 757 757 758 757 758 759 759 762 764 765 766 770 772 771 779 787 781 779 779 778 780 780 777 773 764 758 757 759 759 758 762 762 756 754 757 759 758 760 763 763 764 766 768 770 772 773 775 776
786 785 784 783 783 782 781 781 780 780 780 779 778 778 778 777 777 777 777 777 778 778 779 778 778 779 770 759 759 759 756 755 754 754 755 755 756 757 758 759 758 759 760 759 759 760 761 764 767 770 771 773 773 774 783 788 783 781 781 779 783 782 778 777 770 761 758 760 762 763 764 762 757 755 755 758 759 761 762 763 763 765 767 769 772 773 774 775
785 784 784 783 782 781 781 780 779 779 779 778 778 777 777 777 777 777 778 778 777 775 775 775 775 775 770 761 758 757 754 754 753 753 753 754 755 757 759 759 760 761 764 766 765 763 764 767 772 775 776 775 773 773 776 777 776 777 779 780 782 781 777 775 769 762 763 766 766 767 768 764 760 757 756 757 760 761 761 763 765 766 767 769 771 771 773 773
784 784 783 782 782 781 780 780 779 779 778 778 777 777 777 778 778 778 778 777 774 770 768 769 769 768 766 760 756 756 754 753 753 753 753 754 755 758 759 760 762 764 767 770 768 766 767 773 778 778 775 771 770 771 772 774 776 776 776 778 781 782 776 771 766 762 764 768 770 770 770 768 764 761 758 757 758 758 760 763 766 767 767 768 770 770 771 771
783 783 782 781 781 780 780 779 779 778 777 777 776 776 777 778 780 779 776 772 767 765 765 764 765 764 761 757 756 756 758 757 754 753 753 753 755 759 762 762 766 769 770 772 770 767 769 777 778 772 771 770 771 774 775 775 776 775 775 776 779 781 775 770 766 764 765 767 772 772 767 766 764 760 758 756 755 755 758 762 764 764 765 766 767 768 769 770
782 781 781 781 780 780 779 778 778 777 776 776 776 776 776 776 777 776 775 773 765 761 763 762 763 763 757 756 756 757 762 763 758 754 753 753 756 761 763 764 769 772 772 772 773 773 777 777 770 768 773 776 775 776 774 773 774 774 776 778 779 780 777 771 766 765 766 766 769 770 766 764 762 759 758 756 755 754 754 758 761 763 764 765 765 766 769 771
781 780 780 780 779 779 778 777 777 776 776 776 775 775 775 774 774 773 774 776 769 760 760 761 762 761 757 755 754 756 761 763 761 755 751 753 757 760 763 765 770 772 772 773 774 780 782 772 764 769 774 773 773 776 774 773 774 774 776 778 780 781 781 776 769 766 767 768 770 769 768 766 761 759 756 755 757 755 753 755 758 762 762 762 763 763 766 768
780 779 779 779 779 778 777 777 776 776 775 775 775 775 774 774 773 773 773 776 774 763 757 757 757 757 755 752 750 755 759 758 758 754 749 752 758 760 762 765 770 773 772 772 775 780 778 767 764 770 771 770 772 775 776 773 774 776 775 775 777 777 777 777 773 769 768 771 771 769 773 772 765 764 758 755 760 757 753 754 754 757 759 759 761 762 764 765
779 779 778 778 778 777 777 776 775 776 775 774 775 774 775 774 773 773 774 780 780 766 756 755 755 754 750 749 750 752 755 755 752 750 748 750 755 760 762 762 767 772 772 773 777 778 772 765 766 768 769 771 771 773 774 773 776 778 774 771 770 771 773 775 776 776 777 778 774 774 783 781 772 771 764 757 760 757 756 757 752 751 756 760 761 760 762 764
779 779 778 778 778 777 777 776 775 776 775 774 774 774 774 773 773 772 776 788 784 766 758 758 757 753 748 750 750 750 759 758 748 747 748 748 750 754 762 764 766 769 768 770 775 774 769 763 763 766 770 773 774 774 773 773 779 781 772 767 768 771 775 777 777 780 784 785 780 779 787 787 778 771 763 759 760 757 756 757 752 749 752 756 757 756 758 760
779 778 778 778 777 777 776 775 776 776 775 775 774 774 773 771 772 770 778 795 787 766 761 760 757 753 749 749 748 753 767 761 748 747 746 748 749 751 760 766 767 767 765 770 776 773 768 763 763 767 770 774 776 774 771 770 777 777 769 766 769 771 774 777 778 779 782 783 782 781 783 789 786 772 764 765 766 760 755 754 752 750 749 752 753 753 753 754
778 778 777 777 777 777 776 776 776 775 775 775 773 773 772 770 771 771 784 800 785 762 759 758 752 750 748 749 748 753 760 755 754 754 745 746 750 752 761 764 764 764 762 769 778 774 768 763 763 766 771 775 772 765 765 768 770 767 764 767 768 769 773 775 776 779 784 785 785 784 784 792 793 775 766 771 769 763 757 752 750 747 746 747 749 749 749 750
778 778 777 777 777 777 776 776 776 774 775 773 772 772 770 770 770 775 791 796 777 760 758 755 752 752 751 751 752 753 753 753 757 753 746 749 750 752 760 760 760 763 763 769 773 769 765 761 760 764 769 769 762 758 761 763 764 762 764 768 769 772 776 777 779 780 786 791 787 783 785 793 793 776 769 775 771 763 757 752 749 745 743 742 743 744 746 748
778 777 777 777 776 776 776 775 774 774 774 772 772 770 768 770 775 787 799 791 773 764 758 755 756 756 755 757 758 755 754 754 753 750 750 753 752 752 757 757 758 763 767 770 769 764 762 759 760 761 761 759 754 758 763 760 760 762 764 767 770 775 777 779 785 783 788 794 786 783 786 790 791 778 769 771 766 760 756 753 750 744 740 739 738 739 742 745
778 777 777 776 776 776 775 775 774 774 773 772 771 768 769 775 783 796 798 780 772 768 760 759 760 756 757 761 762 759 757 756 753 754 756 756 757 757 759 761 762 767 772 771 768 767 764 761 760 755 752 754 754 758 764 763 762 764 766 770 775 780 781 782 786 786 793 795 785 786 788 787 788 776 766 766 762 759 760 756 751 745 740 738 738 740 741 741
777 777 777 776 776 776 775 775 773 773 772 771 770 768 773 784 791 796 789 774 775 774 765 765 762 758 759 761 763 761 759 759 756 755 758 759 761 761 763 765 766 772 778 775 770 769 764 759 759 755 750 752 755 761 766 765 766 767 769 775 784 791 794 793 792 794 797 791 786 790 788 787 785 770 761 763 759 758 761 758 754 750 745 741 740 741 742 744
777 776 776 776 776 775 775 774 773 773 772 770 771 770 778 791 795 793 786 778 778 772 765 766 763 762 763 764 766 763 760 762 759 757 759 761 764 764 763 766 767 770 776 779 778 772 767 762 759 756 752 749 753 762 768 768 768 769 769 773 784 797 805 804 803 806 801 789 788 793 789 786 780 769 765 764 760 759 760 758 755 752 750 747 744 742 741 745
777 776 776 776 775 774 773 773 773 772 772 770 772 775 785 794 792 787 785 780 774 767 766 767 765 764 766 768 771 767 765 766 763 761 763 765 768 767 764 764 765 767 771 779 781 777 777 773 761 756 756 752 752 757 762 764 767 770 770 771 777 785 794 798 797 797 794 789 789 790 786 782 775 771 770 766 763 763 760 757 753 751 750 749 747 746 744 744
776 776 776 775 774 773 772 773 772 772 772 771 775 782 790 793 790 787 784 777 773 770 769 768 766 767 769 771 772 768 768 770 766 764 766 768 770 768 764 762 762 765 771 778 781 779 780 774 759 755 756 751 752 753 753 758 766 772 772 772 773 772 776 788 795 793 792 791 790 787 784 779 774 772 770 767 763 763 762 758 754 754 753 749 750 751 749 748
775 775 774 774 773 772 772 772 772 772 772 772 779 787 789 787 786 785 779 772 772 773 771 771 770 773 776 775 773 771 768 768 768 766 767 770 771 769 766 762 761 764 766 771 776 777 778 772 759 758 756 751 754 753 749 754 763 771 773 770 772 770 767 781 797 801 799 795 793 793 784 775 774 773 769 767 764 763 764 760 758 759 756 753 756 755 753 752
774 773 773 772 772 772 772 772 772 772 772 775 783 787 786 781 778 776 771 769 771 771 773 778 776 778 782 780 778 775 770 769 771 772 772 773 772 770 766 763 761 762 762 765 770 771 773 771 762 759 757 753 754 754 751 752 756 765 772 769 769 772 770 776 788 797 802 800 796 794 786 778 779 777 771 768 767 766 767 762 761 761 758 758 760 757 756 754
773 772 772 772 772 772 772 771 771 771 773 779 786 787 784 778 772 770 769 768 770 770 775 781 779 778 784 785 783 778 774 775 776 776 776 775 773 770 768 766 762 763 763 762 766 768 771 772 765 761 761 756 753 755 758 758 756 758 764 765 769 776 779 781 787 793 799 803 799 793 791 788 781 775 772 772 770 769 769 767 764 763 762 764 762 758 758 756
773 772 773 773 773 772 772 772 771 772 776 783 789 788 782 777 771 770 770 770 770 772 777 780 778 779 782 782 782 779 777 780 780 779 778 777 774 768 767 769 764 763 763 761 764 769 772 776 771 763 764 762 757 759 765 765 763 760 761 766 770 775 781 784 789 791 792 800 801 794 791 786 774 768 769 770 770 769 768 768 768 767 766 766 764 761 759 757
774 775 776 774 773 772 772 771 772 775 779 785 789 785 780 778 774 771 771 770 770 772 775 778 778 780 780 780 782 781 780 780 780 781 780 778 775 770 769 771 767 765 764 761 766 772 773 778 777 767 765 766 764 766 768 768 768 765 766 772 774 776 783 785 787 791 790 794 800 798 793 781 770 771 770 767 770 769 767 768 768 769 769 768 767 764 760 759
777 779 778 773 772 772 771 772 777 782 783 786 788 784 779 778 776 774 771 770 770 769 771 775 777 778 779 780 782 781 781 782 780 780 780 777 776 775 775 774 771 768 766 763 767 771 773 777 779 774 769 770 770 769 767 766 768 767 767 772 775 776 782 785 790 794 791 790 795 799 794 780 773 777 774 770 772 770 767 767 766 767 769 769 770 768 765 764
780 782 778 773 772 771 771 776 785 789 786 785 786 784 780 778 777 776 773 771 771 769 769 772 774 776 778 779 780 780 781 782 781 780 779 777 778 779 778 776 772 769 768 770 771 771 774 777 779 778 774 774 775 771 769 769 768 769 771 774 776 777 779 785 790 792 791 793 796 799 796 784 779 780 776 773 773 771 769 767 765 768 769 770 771 770 769 767
784 782 775 772 772 770 773 781 787 789 787 785 785 782 780 778 777 777 775 773 774 772 772 773 773 775 776 777 778 779 781 781 780 779 778 777 779 782 780 776 773 770 769 773 774 772 774 778 780 780 778 775 771 768 771 772 769 772 777 778 778 779 780 783 787 788 790 791 792 796 796 787 780 780 777 775 772 769 770 770 768 770 771 772 773 771 770 768
787 784 777 775 771 769 776 786 789 790 790 788 786 783 781 779 778 778 778 776 775 774 774 774 774 775 775 776 777 777 780 782 781 781 781 781 781 781 779 776 776 775 772 774 776 773 775 780 783 786 788 784 778 775 774 771 770 776 782 782 780 780 781 785 789 791 792 792 789 789 790 785 782 782 778 775 773 771 773 774 773 773 773 773 773 772 771 770
787 785 781 779 774 773 782 789 791 792 793 792 790 786 784 781 778 778 778 777 776 775 776 776 775 776 777 777 778 779 782 783 783 783 784 786 785 782 780 779 780 780 776 775 775 774 778 784 784 786 792 795 791 786 780 774 775 781 784 784 782 780 781 784 787 791 793 795 793 788 784 781 782 784 779 776 779 778 776 777 776 775 775 774 774 774 773 772
789 787 785 783 781 782 788 792 793 793 793 794 792 787 787 786 781 777 776 778 779 777 779 781 778 778 781 781 782 786 787 786 786 787 789 791 789 785 783 782 782 782 777 775 775 775 780 786 784 782 786 788 785 780 778 778 777 778 781 784 784 783 782 783 787 791 790 792 791 786 783 780 781 784 780 778 783 783 779 779 778 776 776 774 775 775 774 774
793 794 795 793 789 790 792 795 797 796 794 795 792 788 787 788 785 781 777 779 781 780 782 786 784 783 786 786 786 790 791 789 789 791 795 796 793 788 785 783 783 782 779 778 777 777 782 785 784 783 782 781 779 776 775 778 776 774 778 782 784 783 781 783 786 788 788 791 790 784 782 781 780 783 781 780 784 784 781 780 778 777 776 776 776 776 775 775
796 798 802 802 798 796 796 797 799 799 796 795 793 791 791 791 790 788 783 780 782 782 783 787 789 789 789 788 788 790 792 791 790 794 798 797 795 791 785 783 785 783 782 782 781 782 786 786 786 786 780 776 779 779 778 779 777 776 777 779 782 782 781 783 785 785 788 789 784 779 780 780 780 784 783 782 783 782 781 781 780 778 779 779 779 777 776 777
802 803 805 804 802 801 801 800 800 799 796 795 795 795 797 797 795 793 788 784 785 787 786 788 791 792 790 788 789 792 793 791 791 796 798 796 796 796 789 786 786 785 784 785 784 785 787 787 788 789 783 778 778 780 781 782 779 778 778 779 781 782 781 781 782 784 786 784 777 780 784 782 781 784 784 784 785 784 783 782 779 779 780 780 779 778 778 779
809 809 809 807 805 804 802 801 800 798 797 799 799 798 800 800 799 796 792 788 790 791 790 789 791 793 791 789 788 790 792 790 790 794 796 796 796 796 794 791 789 788 787 788 788 787 788 790 789 787 786 783 778 777 780 782 781 781 780 780 782 783 783 784 784 784 786 783 779 783 788 785 783 785 785 786 786 783 781 779 777 778 780 779 778 779 779 779
813 813 813 810 806 805 803 803 803 801 801 804 804 801 801 801 801 800 794 790 791 791 791 790 790 792 793 792 789 788 790 790 790 790 791 793 792 791 791 791 790 790 789 788 788 788 789 793 789 786 790 787 778 776 778 778 781 783 782 782 781 779 779 781 781 780 779 778 778 781 782 780 782 786 787 787 785 781 779 778 777 779 780 780 779 779 779 778
814 813 813 811 807 808 809 807 806 805 804 807 808 804 803 803 802 800 795 791 791 791 791 792 791 792 794 793 790 787 787 788 788 787 788 788 789 789 789 789 789 791 791 789 789 788 788 789 788 789 794 789 780 780 779 779 782 780 775 775 774 772 774 777 777 777 775 773 774 775 773 774 781 787 787 786 786 783 780 779 778 780 781 780 779 779 778 777
Wind_Speed
11 11 11 10 10 10 10 10 10 10 9 9 10 10 10 10 10 9 9 9 8 9 10 10 10 10 10 10 12 13 16 17 16 10 8 13 14 12 9 9 9 5 4 6 6 5 5 4 3 6 5 3 1 1 1 3 1 2 3 2 1 3 5 4 5 4 1 4 9 8 5 2 6 3 2 6 7 6 7 6 4 6 7 10 16 26 29 27
11 11 10 10 10 10 10 10 10 10 9 10 10 10 10 10 10 9 9 9 9 10 10 10 10 10 10 10 12 13 16 17 14 11 14 15 11 10 13 12 9 6 5 7 8 5 2 3 3 7 4 2 2 2 1 1 1 3 3 2 3 5 5 5 5 5 2 4 9 7 6 1 7 5 3 6 4 4 8 5 5 9 10 13 19 25 25 26
11 10 10 10 10 10 10 10 10 10 10 10 10 10 9 9 9 9 9 9 9 10 10 10 10 10 10 10 12 13 15 13 8 8 7 8 9 14 15 13 9 6 7 7 6 5 2 1 2 5 3 2 2 2 3 2 1 2 3 2 5 6 5 5 7 8 5 2 7 6 4 1 3 2 3 8 7 5 7 6 7 9 11 13 14 18 22 23
10 10 10 10 10 10 10 10 10 10 10 10 10 9 9 9 9 9 9 9 10 9 9 10 9 9 9 11 12 12 11 6 3 5 4 4 8 17 16 13 9 6 7 7 4 3 2 2 2 3 2 2 3 1 1 3 2 1 3 5 6 4 4 8 8 9 5 3 2 4 3 2 2 2 5 11 9 1 5 9 12 15 15 16 14 15 19 19
11 10 10 10 10 10 9 9 10 10 10 10 9 9 9 8 8 9 9 9 9 9 9 9 8 9 9 10 10 9 6 3 2 5 5 3 8 16 15 11 9 6 6 8 5 2 3 1 4 3 2 1 3 1 2 4 2 1 3 6 7 3 3 9 6 7 6 2 2 2 4 1 1 2 6 11 10 6 8 9 13 19 19 20 17 14 15 14
11 10 10 10 9 9 9 9 10 10 10 10 9 9 9 8 9 9 8 8 8 8 8 7 8 9 9 9 6 5 2 0 5 6 4 1 8 15 13 10 9 6 7 9 5 1 1 2 4 2 1 1 2 2 4 4 2 2 5 4 7 4 4 8 4 3 3 1 1 2 3 1 3 5 5 4 5 7 7 9 13 18 20 21 19 16 15 14
11 10 10 10 10 9 9 9 9 9 9 9 9 9 9 8 8 8 8 7 7 7 7 7 8 8 9 6 3 2 2 4 7 5 4 1 5 12 12 10 9 8 10 9 4 2 2 4 2 2 1 2 3 5 5 3 2 4 5 6 7 6 7 9 6 5 3 2 3 1 4 4 4 7 3 3 7 4 5 8 10 12 15 18 16 15 15 14
11 11 10 10 9 9 9 9 9 9 9 9 9 9 9 8 8 8 7 6 5 5 5 6 7 8 9 5 2 3 0 5 7 6 5 3 5 10 12 11 10 10 11 9 6 5 3 4 3 3 1 3 3 4 5 2 1 4 6 7 5 5 8 9 8 8 6 4 2 4 6 1 6 6 2 5 7 2 8 8 8 10 12 13 13 14 13 12
11 11 10 10 10 10 10 10 10 10 10 10 10 9 9 8 8 7 6 5 4 3 4 5 6 7 8 4 2 2 3 5 9 8 5 5 5 8 10 9 11 12 9 7 7 5 3 4 4 4 2 3 3 3 3 1 2 6 7 6 6 7 7 8 9 9 7 5 1 4 4 2 2 4 1 5 5 3 9 9 10 12 13 11 11 13 12 12
12 11 11 11 10 10 11 11 10 10 10 10 10 10 9 8 7 7 5 4 2 2 3 4 5 7 5 3 4 2 4 6 9 6 4 6 6 9 10 9 12 13 8 5 7 7 6 5 3 3 2 2 3 3 1 3 4 5 5 7 9 10 8 5 7 8 6 3 1 4 3 3 3 2 2 3 1 6 10 9 10 12 12 12 11 11 11 11
12 11 11 11 11 11 11 11 11 10 10 10 9 9 8 7 6 5 4 3 2 2 2 3 5 6 3 2 4 1 4 5 6 4 4 7 7 9 10 9 10 13 10 6 10 13 13 8 3 3 1 1 2 3 2 4 4 5 4 6 8 7 6 2 3 6 4 1 2 6 3 3 5 1 6 3 4 8 12 11 10 12 11 10 11 10 9 9
12 11 11 11 11 11 11 11 10 10 10 9 9 8 7 6 5 4 2 2 2 1 1 2 4 4 2 2 3 6 3 5 6 4 5 8 7 6 6 7 8 11 11 7 9 15 17 11 4 2 3 1 2 3 4 5 3 6 2 3 7 5 2 4 2 3 1 2 4 6 4 6 4 3 4 5 6 8 13 13 11 11 9 9 10 9 7 7
12 12 12 12 12 11 11 11 10 10 10 9 8 7 7 5 3 3 2 2 2 1 0 1 2 3 2 1 5 5 3 5 7 7 7 9 8 6 7 8 8 9 11 10 12 14 16 13 6 4 5 2 3 3 2 3 2 6 3 1 4 6 3 4 1 2 1 2 3 5 1 6 6 7 3 4 6 8 11 12 12 10 8 7 7 7 6 7
12 12 12 12 12 12 12 11 11 10 10 9 8 7 6 5 2 1 1 2 2 1 1 0 2 2 2 4 6 2 4 5 7 10 10 12 12 9 9 11 11 12 13 15 17 17 14 12 7 4 4 3 4 4 4 5 4 4 3 2 3 2 3 7 4 0 2 2 1 6 2 6 7 8 6 4 6 8 11 12 11 9 7 7 6 7 7 6
12 11 11 12 13 13 12 12 11 11 11 10 8 7 7 5 2 1 1 1 2 1 1 1 2 2 2 6 7 4 6 5 8 12 11 13 14 9 6 8 11 12 14 17 19 18 13 8 6 3 4 2 2 3 4 5 4 3 2 3 4 1 4 8 4 4 4 2 4 7 2 6 7 7 8 5 7 8 10 10 9 8 7 7 7 7 6 5
12 11 11 11 12 13 13 13 12 11 11 11 9 7 6 5 1 3 3 3 2 2 2 2 1 1 1 5 6 6 5 5 6 8 11 15 15 11 6 4 7 8 11 14 15 16 12 4 3 1 1 3 4 4 4 4 4 4 2 1 3 2 3 5 3 2 3 2 2 3 3 4 5 6 6 6 9 10 9 9 8 8 7 8 7 6 6 6
11 10 11 11 11 12 13 14 13 12 11 11 10 7 5 4 1 3 3 3 2 2 2 1 2 1 2 6 6 5 4 5 6 6 11 15 16 16 9 5 5 6 6 7 6 7 5 1 1 2 2 3 2 4 3 3 4 4 3 1 3 1 1 3 4 4 1 2 4 2 4 4 6 4 2 4 8 10 10 11 10 7 7 6 6 6 7 8
11 10 10 10 11 12 13 14 14 13 12 10 11 8 3 1 2 2 3 5 3 2 1 1 1 2 2 5 4 5 10 10 7 6 10 14 17 18 11 4 4 6 7 7 3 1 2 2 2 2 3 4 3 5 2 4 2 2 1 2 3 2 1 2 4 4 3 2 5 3 4 7 8 6 3 2 5 10 11 10 9 8 8 7 7 8 8 9
10 10 10 10 11 12 12 13 14 15 13 11 11 7 1 2 3 2 3 4 3 0 2 2 1 1 2 5 6 11 14 10 6 6 9 11 13 14 11 5 3 4 3 3 4 3 1 2 3 1 3 3 2 4 6 7 6 5 3 4 2 1 3 4 5 5 2 2 3 4 5 6 7 7 7 3 2 8 11 6 5 6 7 7 7 7 8 11
10 10 10 10 10 11 11 13 13 14 14 12 10 5 1 2 3 2 1 2 4 5 4 4 4 2 5 6 7 11 11 5 3 5 8 9 9 7 5 3 2 4 2 2 4 3 2 1 2 4 6 7 7 6 6 5 4 4 4 4 2 1 3 5 5 6 1 3 3 4 3 4 6 7 8 7 4 1 7 7 6 7 7 7 8 9 10 11
10 9 9 9 9 10 11 12 13 13 14 13 9 2 2 1 2 3 3 3 6 8 8 7 7 7 9 9 9 7 5 3 4 3 5 7 7 4 2 0 2 2 3 3 2 3 3 0 6 8 9 7 5 4 5 4 4 4 3 2 3 0 3 4 4 6 3 4 3 3 2 3 6 6 7 6 5 3 6 8 9 11 11 9 10 11 10 7
10 9 9 9 8 9 10 11 12 13 13 11 7 1 2 2 3 6 2 3 7 8 9 7 6 8 11 13 14 5 2 2 7 6 5 5 4 3 2 3 3 3 4 2 2 5 4 4 10 9 6 3 1 3 5 5 5 4 2 1 2 2 3 5 5 6 4 3 3 4 1 4 7 6 7 5 4 6 5 7 8 10 10 9 10 11 8 7
10 9 9 8 8 8 9 10 11 11 10 9 5 3 4 7 8 8 1 2 7 4 5 5 4 5 6 9 10 4 3 3 4 7 6 8 3 3 3 3 2 1 2 2 2 1 2 6 9 3 6 4 0 2 5 4 3 3 3 2 2 3 1 3 5 6 4 2 1 0 3 5 6 5 7 6 4 5 6 5 7 8 10 11 11 9 9 11
9 9 9 8 8 7 8 11 9 8 9 8 6 6 8 9 9 7 2 1 4 4 4 6 5 5 6 6 5 8 3 4 4 5 7 9 3 2 4 3 2 1 3 3 5 3 6 9 4 4 6 5 2 0 3 4 1 2 2 4 3 3 3 4 4 5 5 4 2 4 5 5 5 4 6 5 4 5 6 6 4 6 9 10 9 7 8 11
8 8 8 8 7 6 9 8 4 7 9 4 4 10 11 10 11 6 1 1 2 5 4 4 3 4 6 3 6 8 2 2 5 5 7 10 6 3 1 2 3 2 6 3 5 3 8 7 1 1 2 5 5 3 3 6 2 4 3 6 7 5 4 4 3 5 5 4 4 3 2 5 5 4 7 5 5 5 5 6 8 8 5 7 8 8 9 9
6 6 7 7 6 6 7 3 3 9 6 0 6 13 13 13 11 3 2 3 2 5 2 1 1 2 4 2 5 3 3 3 6 3 6 9 8 5 2 1 1 3 5 3 3 2 5 5 1 2 4 4 5 5 4 6 3 3 5 7 6 5 4 2 1 3 2 3 4 2 3 5 5 4 7 5 5 7 7 6 9 9 5 7 8 9 11 11
5 5 6 6 5 6 5 2 6 7 1 4 12 14 16 15 7 1 3 4 3 3 1 1 0 1 2 2 3 4 1 5 4 1 4 9 6 3 1 3 1 2 3 3 1 2 3 5 5 1 1 4 4 4 5 7 7 3 5 6 6 5 5 5 5 4 3 3 4 4 4 2 4 5 7 5 5 8 9 9 9 10 9 8 8 10 12 13
4 4 5 5 5 6 5 5 7 3 2 10 13 15 18 12 2 2 4 3 2 2 1 1 1 1 2 1 3 4 3 2 1 2 1 6 5 4 0 5 4 5 2 4 3 5 1 3 4 1 2 3 5 6 7 8 4 6 5 6 4 3 4 5 6 3 1 1 3 5 2 1 4 6 6 4 3 7 9 10 11 10 12 9 9 11 12 13
4 4 4 5 6 6 6 7 5 3 7 12 12 18 18 6 2 3 4 2 2 1 0 0 1 2 2 1 1 1 1 1 1 3 2 3 2 3 2 6 5 4 1 5 5 6 3 4 5 4 4 4 7 5 8 10 4 5 5 5 3 4 4 4 5 3 2 2 4 6 1 2 4 6 5 3 2 7 8 9 10 11 12 9 8 10 10 11
4 4 4 5 6 6 7 8 5 5 10 11 15 19 12 1 3 5 2 1 1 2 1 1 1 1 2 2 3 3 1 1 2 1 2 1 3 4 2 3 5 4 1 2 2 5 4 3 3 4 4 6 6 4 5 8 5 2 4 4 5 5 4 3 3 4 3 1 6 7 4 4 1 5 4 2 4 5 5 8 9 11 11 9 8 8 9 10
5 5 4 5 6 6 7 6 5 6 9 13 18 14 4 2 4 5 1 2 1 3 3 2 2 1 2 2 3 3 1 2 2 1 1 1 3 4 1 1 3 3 3 5 3 4 6 2 2 3 3 4 3 1 1 1 2 4 4 4 3 3 4 4 4 3 1 4 6 6 4 5 1 5 5 5 6 5 4 7 10 12 13 11 7 4 6 9
6 5 5 5 7 8 6 5 6 8 10 15 15 7 3 2 2 1 2 3 2 2 2 2 3 3 1 1 1 2 1 2 2 3 4 3 2 1 2 3 1 2 3 2 2 5 4 4 3 5 3 4 4 1 3 5 5 5 4 5 3 2 3 2 3 1 2 5 5 4 3 2 3 7 6 6 8 7 5 6 8 10 11 11 7 2 1 2
6 5 5 6 8 9 8 6 7 9 13 15 9 4 5 4 0 2 3 2 1 2 1 2 2 2 2 3 3 4 2 2 3 2 2 1 2 4 4 4 5 2 3 3 1 3 3 5 5 3 4 1 6 4 1 2 1 3 4 4 3 2 2 2 3 1 3 5 4 3 2 1 3 4 5 6 7 7 5 4 4 6 9 10 8 4 5 4
5 5 6 7 9 10 8 6 7 9 12 10 4 4 4 2 2 2 2 2 2 1 2 2 3 2 3 4 1 3 3 2 3 2 1 1 0 3 4 3 4 4 1 1 1 1 1 4 4 2 3 1 3 5 6 5 3 3 3 4 4 4 3 3 3 2 3 4 3 3 1 2 2 2 5 6 5 5 5 3 7 10 10 10 10 10 7 6
5 6 8 9 9 7 6 6 7 8 8 5 6 4 2 2 3 1 2 4 1 2 3 3 3 4 4 2 1 2 2 2 4 3 0 2 2 3 3 3 2 4 4 2 2 2 2 4 6 3 2 2 3 3 6 6 2 3 2 4 2 4 5 2 2 5 3 1 2 2 2 3 4 2 6 4 5 7 6 6 11 11 10 12 12 12 10 8
4 6 7 8 6 4 4 6 6 5 3 4 6 3 2 3 2 2 2 2 0 2 4 4 5 4 4 4 3 5 3 1 3 4 1 1 1 3 2 3 2 3 4 4 3 1 2 4 6 3 3 1 2 3 2 4 2 1 1 2 4 3 7 3 1 0 3 1 3 1 2 5 2 2 6 6 8 9 8 10 11 9 10 13 10 9 9 9
2 4 4 6 5 2 4 5 5 2 2 6 4 0 3 3 3 3 2 1 0 1 3 3 3 1 2 3 3 5 5 3 3 3 2 2 1 2 3 3 2 0 2 3 3 2 3 3 6 1 0 3 1 3 4 3 3 4 2 4 3 1 4 3 1 2 4 1 4 1 3 4 1 1 5 7 9 8 8 9 10 11 12 11 8 7 8 8
3 4 3 3 2 1 1 2 4 2 4 5 2 2 2 2 1 1 1 2 0 3 5 1 2 0 0 1 3 5 4 3 3 3 2 2 1 1 1 2 2 4 3 2 2 1 3 2 7 1 3 5 4 4 3 6 3 4 3 2 2 1 1 1 1 1 0 2 3 3 3 3 3 4 1 4 5 4 6 7 8 10 9 7 7 7 8 8
5 3 2 4 3 3 4 2 1 3 5 3 0 1 2 2 2 3 4 3 1 3 2 2 1 1 1 2 3 4 3 1 2 3 1 1 2 1 2 0 2 6 5 3 4 2 2 2 5 4 2 3 5 2 2 4 6 4 3 3 2 2 3 0 1 2 2 2 2 3 4 2 5 6 6 7 6 6 6 6 6 6 4 5 6 7 7 8
5 2 1 6 6 5 6 4 3 5 3 1 2 2 2 2 3 5 6 4 1 2 0 3 2 1 2 1 1 1 2 1 1 1 1 0 2 3 5 4 3 6 6 5 4 1 2 2 3 5 4 2 2 1 4 3 0 2 3 3 2 1 2 1 0 2 2 2 2 1 3 4 5 3 6 7 6 6 6 6 6 5 4 2 3 5 6 7
4 2 2 9 10 6 6 4 3 3 1 0 0 2 2 2 2 4 5 4 2 1 1 3 3 2 2 1 1 2 1 1 1 0 1 1 1 1 5 5 3 4 5 5 4 1 1 2 3 3 4 2 3 4 4 4 4 3 1 1 2 2 2 2 2 2 1 2 3 3 2 6 5 2 0 3 5 5 5 6 5 4 4 4 3 4 5 6
4 1 3 12 14 6 4 4 1 2 3 1 1 2 3 2 1 3 4 4 3 0 1 2 3 2 2 2 1 1 1 0 2 1 1 2 1 1 4 7 5 2 2 2 3 2 2 3 2 2 4 4 6 7 5 2 3 6 2 1 3 3 4 4 3 3 1 1 2 3 1 5 5 3 4 3 3 4 3 3 4 3 3 4 5 5 5 6
2 2 3 14 15 3 6 4 4 3 1 2 2 2 3 2 1 3 4 3 2 1 2 1 1 1 1 1 1 1 2 1 3 2 2 2 1 1 6 11 9 4 3 2 4 2 2 3 2 2 4 4 6 5 3 2 5 6 2 2 4 3 4 5 4 3 1 2 1 2 2 5 5 5 4 4 4 3 3 4 6 5 5 5 6 6 6 6
0 4 3 12 14 3 5 1 1 1 3 4 3 3 3 1 1 3 2 3 2 1 1 1 1 0 0 1 2 2 1 1 2 1 1 1 0 2 9 13 10 6 2 1 2 1 1 0 2 2 3 5 7 5 4 5 3 3 1 2 3 3 5 3 1 3 1 3 3 4 4 5 4 4 6 5 6 7 7 7 6 5 5 5 5 6 6 7
2 2 3 9 14 8 4 3 4 2 3 3 3 4 3 2 2 2 3 2 2 1 1 2 1 1 2 2 2 2 2 2 1 2 2 2 3 2 8 11 8 6 4 2 1 1 1 1 2 2 2 3 2 3 3 3 2 1 2 2 1 2 4 1 1 3 1 3 3 4 4 5 4 4 6 6 6 7 7 7 6 4 4 4 5 5 6 6
2 2 3 6 9 7 2 1 3 2 0 2 3 3 1 1 4 4 2 1 3 2 2 3 3 3 4 4 4 4 4 2 1 2 3 3 3 2 5 7 5 7 9 11 9 2 2 1 2 5 5 6 6 6 5 3 1 3 2 3 2 1 2 3 3 2 3 3 2 4 5 5 6 4 5 5 5 4 4 5 5 5 5 5 5 5 5 6
2 1 2 2 4 4 3 4 5 2 1 1 0 2 2 2 3 4 2 2 3 3 3 3 5 4 2 3 3 1 3 3 3 3 2 3 3 4 6 5 4 9 11 11 9 4 4 2 2 4 5 7 7 7 6 3 4 5 4 3 5 4 4 5 4 4 4 3 5 6 6 5 6 3 4 5 2 0 1 2 4 4 5 5 5 5 6 6
2 1 1 1 2 1 2 4 3 3 3 0 1 2 5 5 4 3 3 2 3 4 2 2 5 4 1 1 3 1 2 3 3 1 0 2 2 4 7 4 3 8 10 7 6 4 4 2 3 3 5 7 6 7 5 3 4 5 5 6 6 6 6 6 6 6 6 5 8 7 6 6 6 3 4 5 3 4 3 3 4 3 4 4 4 5 6 6
2 1 2 2 1 2 2 4 3 2 4 3 2 3 4 5 5 3 3 3 4 4 3 2 3 3 1 2 5 2 1 0 2 2 1 2 2 2 4 4 3 5 8 6 5 2 2 2 3 1 4 6 6 6 5 4 4 4 6 7 6 7 8 8 7 6 8 9 10 6 6 7 6 5 5 4 4 5 4 3 4 3 4 4 4 5 5 5
2 1 3 3 2 2 2 3 2 3 4 4 3 3 3 4 5 5 4 2 1 3 3 2 2 2 1 3 5 4 5 6 3 2 2 1 2 1 1 2 3 4 6 4 3 2 2 2 2 3 3 6 6 5 4 5 6 7 7 6 5 7 7 6 5 4 5 8 8 5 4 6 5 5 5 4 4 3 3 5 5 4 4 4 5 5 5 5
3 2 2 2 1 3 2 3 3 3 3 4 2 2 2 3 4 4 4 1 2 1 0 2 3 1 2 3 4 4 7 7 7 7 6 4 2 3 3 3 3 4 4 1 1 1 1 2 2 4 3 6 5 5 6 5 5 7 7 6 6 7 6 5 4 5 6 5 4 2 3 5 5 3 2 4 5 4 4 6 5 5 4 3 4 4 4 5
8 3 3 3 1 3 3 2 4 3 1 2 3 3 2 3 5 3 2 3 2 2 2 4 3 1 3 1 2 7 8 8 8 8 6 5 5 5 4 4 3 3 2 1 2 2 3 2 2 0 3 6 4 4 4 4 4 8 7 9 10 9 7 4 2 5 7 6 6 4 5 6 5 4 3 3 4 4 4 5 3 3 3 1 2 3 4 5
Wind_Direction
333 329 325 324 321 320 317 317 316 313 314 318 322 323 322 324 321 320 317 317 318 314 315 312 307 308 314 322 323 325 324 317 312 301 251 262 263 243 218 182 181 196 229 254 256 268 334 342 345 7 17 2 315 274 251 185 147 89 98 119 185 232 221 195 196 221 219 306 300 314 328 137 124 92 84 63 54 95 92 50 56 39 55 107 120 134 142 145
334 331 327 324 320 316 315 315 316 317 317 319 322 321 321 322 321 323 318 316 314 311 314 311 311 316 320 326 326 329 327 319 309 283 259 267 265 221 201 185 192 220 228 240 238 223 9 11 14 28 38 9 311 295 308 243 145 130 128 129 212 223 220 203 212 252 245 287 299 305 312 264 141 132 106 106 107 104 89 63 66 76 84 101 119 133 140 144
334 330 326 322 319 317 317 316 317 317 318 318 317 318 320 320 322 322 318 316 313 311 313 315 319 321 326 329 328 332 325 321 305 273 283 286 235 201 191 190 198 214 224 231 232 211 194 348 18 42 45 337 290 285 329 305 239 179 141 175 241 222 239 246 232 255 236 239 315 316 336 4 174 136 98 123 125 124 130 137 117 116 126 125 131 137 141 144
335 331 327 325 322 321 320 318 316 314 316 317 316 318 318 319 321 317 315 315 312 313 313 317 322 323 332 330 327 329 323 328 293 267 348 353 203 185 184 192 190 197 219 218 216 212 233 1 44 59 66 315 300 307 286 267 235 217 158 192 240 211 242 261 240 258 254 150 292 311 46 59 292 10 122 132 118 121 200 184 157 149 150 144 148 148 146 145
339 335 331 328 325 323 321 319 315 314 315 315 315 314 315 316 314 311 312 314 313 313 314 318 323 328 333 330 326 321 333 37 281 298 355 358 188 181 181 187 184 192 208 204 212 237 259 9 65 53 54 287 308 16 244 247 160 211 231 206 232 214 246 268 252 264 276 179 216 38 81 135 327 89 151 145 146 196 207 198 164 152 156 155 154 151 147 145
339 337 336 331 327 324 320 319 316 315 314 312 312 310 312 310 308 308 307 310 310 309 316 323 325 332 334 334 336 324 4 100 281 306 339 341 193 189 185 193 198 205 206 203 216 248 206 74 70 68 52 282 232 201 247 257 152 220 272 237 238 216 225 268 268 281 305 150 224 138 136 27 57 145 183 173 197 213 181 177 167 159 159 154 149 149 151 154
338 337 337 333 331 327 324 323 319 317 315 313 311 309 308 305 305 301 299 301 301 308 319 325 327 335 342 342 337 8 66 251 286 304 288 280 196 194 189 202 207 205 206 205 197 145 122 95 96 158 116 303 226 212 252 272 173 199 264 272 258 221 223 259 268 294 318 214 254 139 102 66 116 163 184 278 267 247 147 154 155 152 146 142 144 150 155 158
337 337 335 334 334 331 328 325 321 317 313 310 307 306 303 300 298 292 293 295 296 311 315 323 334 342 350 349 325 6 356 258 304 316 262 223 188 186 184 195 200 202 203 204 186 163 146 127 174 183 142 263 199 213 261 320 320 213 237 265 270 242 241 260 263 269 268 241 266 64 70 124 170 143 107 289 287 217 132 122 121 126 130 137 147 152 156 157
337 336 333 334 333 331 329 325 322 316 311 308 304 303 301 298 298 294 291 292 298 306 314 329 338 356 357 344 26 13 285 287 321 316 251 210 186 176 180 186 190 195 190 198 189 166 189 185 197 194 208 255 208 242 259 335 272 221 224 252 267 264 253 256 258 248 233 241 248 91 64 285 198 93 37 301 306 151 120 113 128 135 139 144 152 158 159 157
335 334 334 334 333 332 330 328 326 321 315 309 304 300 297 296 296 294 289 286 287 290 326 341 340 5 1 335 56 38 304 330 329 309 219 201 184 171 179 183 184 189 178 178 187 180 199 196 168 164 205 272 243 255 186 151 221 224 233 261 262 259 253 247 254 239 206 229 223 128 127 280 320 45 244 303 54 136 116 120 144 145 150 152 157 166 163 159
334 336 337 334 335 334 333 334 332 328 323 315 309 303 297 296 293 297 296 283 261 267 325 342 344 0 355 42 87 215 299 353 336 312 207 199 189 182 187 192 191 192 185 177 200 210 219 215 121 94 221 264 262 272 238 200 232 263 267 286 288 267 251 224 226 236 196 182 143 120 111 320 345 301 214 204 148 146 132 140 158 156 157 154 162 170 169 167
336 339 337 334 337 338 338 340 341 341 335 329 321 312 305 296 289 298 298 275 263 244 296 338 354 355 354 50 172 230 307 3 339 319 217 208 205 213 212 210 210 203 197 195 222 226 231 231 135 108 247 235 306 290 250 240 257 292 295 283 312 354 267 226 196 246 176 188 188 121 39 332 317 269 221 157 154 158 145 152 166 167 161 156 168 171 168 165
337 340 337 335 339 340 341 343 348 350 346 345 337 330 325 306 294 292 276 255 244 240 292 354 346 345 19 322 227 236 308 320 314 293 244 231 230 235 231 227 230 227 218 221 246 251 247 240 184 191 237 187 268 270 299 317 322 315 350 142 318 14 332 262 348 342 118 202 212 131 20 292 272 278 274 144 152 155 152 164 173 170 161 157 169 168 165 164
341 340 336 335 338 338 341 345 352 354 353 356 352 351 349 329 309 266 260 253 219 222 268 354 347 11 60 267 258 284 305 289 267 253 245 237 239 248 244 236 237 241 239 242 256 267 267 250 208 214 240 187 250 288 346 352 5 326 324 37 12 41 284 299 332 104 161 258 25 103 155 260 267 281 271 188 154 158 169 178 176 169 160 158 170 170 170 169
341 339 337 336 336 335 337 342 354 359 357 359 359 356 352 339 304 199 189 216 190 169 191 2 335 17 22 282 277 312 303 274 238 234 229 231 235 248 256 238 241 247 247 250 258 270 280 258 218 227 261 271 23 15 355 341 356 4 330 325 350 91 272 303 308 191 195 292 44 93 155 269 271 261 251 211 162 169 184 186 180 177 166 160 171 171 162 154
340 338 335 331 331 332 331 338 350 359 360 357 353 346 341 338 268 179 171 179 179 157 110 45 349 94 67 287 305 324 279 239 250 236 214 225 230 235 270 287 269 267 249 250 256 265 278 260 218 196 280 335 47 78 31 1 343 358 64 267 302 6 317 312 319 247 229 278 21 112 171 266 275 237 229 214 184 179 188 197 195 187 177 166 170 168 155 150
339 334 330 326 324 325 329 334 341 353 1 355 348 342 331 332 192 179 168 152 144 152 124 51 11 60 263 281 317 334 289 254 264 242 211 221 229 234 261 314 305 309 301 284 265 256 276 279 283 348 36 13 59 90 34 345 320 320 28 48 283 307 319 319 317 309 336 215 237 203 183 237 275 260 231 224 199 188 191 201 201 188 182 176 166 167 163 165
335 331 326 321 319 322 328 331 334 345 354 352 349 345 330 358 125 145 148 134 116 106 83 327 11 42 277 287 314 309 301 284 257 243 222 220 227 233 245 273 309 336 350 347 342 312 310 340 39 9 358 359 30 80 129 233 210 259 306 40 329 325 312 303 285 301 351 277 236 201 226 252 270 291 302 227 180 196 208 205 204 191 178 179 172 175 175 174
332 328 322 318 319 322 324 326 331 336 341 346 348 347 353 111 97 106 136 127 119 278 291 238 164 47 277 273 286 297 302 284 231 226 221 213 218 226 235 260 321 0 16 358 336 345 44 9 29 9 309 301 254 142 173 206 182 189 191 143 117 12 301 277 259 277 347 329 271 210 233 258 253 290 308 301 129 191 210 199 207 204 181 182 182 181 182 186
329 323 319 317 318 320 321 324 327 327 331 339 343 352 84 55 37 352 272 177 207 236 256 212 180 267 287 274 288 313 319 293 213 216 218 206 191 194 222 254 6 25 66 184 284 313 91 42 286 222 231 237 232 207 182 180 158 141 118 120 108 84 298 288 274 300 47 118 293 240 224 289 266 279 286 291 350 203 191 169 185 201 195 195 192 189 191 195
329 322 317 316 315 318 320 319 320 321 324 332 341 23 131 102 42 323 291 258 240 226 236 228 199 237 264 267 284 325 1 332 303 285 225 202 162 151 240 152 82 323 288 206 243 332 57 3 254 229 222 224 226 198 153 119 100 99 112 84 1 295 268 278 260 306 354 122 298 281 183 283 275 270 280 301 339 296 196 172 185 198 200 199 197 198 193 185
329 322 319 318 318 319 317 316 318 320 323 333 347 66 217 269 318 311 299 297 281 225 223 238 225 251 262 265 269 283 57 303 307 301 214 166 129 171 237 78 120 242 298 18 13 348 4 275 257 241 201 172 128 116 109 98 90 78 95 62 342 267 284 300 286 312 1 105 291 320 52 277 273 270 284 291 264 256 228 188 188 195 204 207 203 200 181 161
328 323 322 323 326 322 317 319 319 321 329 336 336 310 324 344 336 321 311 290 295 252 214 220 212 243 266 271 251 186 128 209 266 286 207 154 128 178 148 80 106 245 339 69 155 286 313 254 249 206 133 139 28 82 100 102 89 83 112 116 281 271 301 296 296 318 351 58 211 49 38 303 294 302 285 273 248 269 277 233 196 183 201 212 207 201 182 172
327 322 323 327 333 329 322 322 322 333 334 330 338 351 1 4 350 333 312 275 298 287 235 205 191 207 239 269 194 151 156 202 198 261 194 149 124 154 147 141 126 282 271 168 154 200 255 253 238 101 125 158 187 134 119 145 232 296 176 159 203 233 203 221 279 326 343 3 51 77 28 322 314 321 288 300 339 310 309 307 262 207 201 208 207 206 198 188
327 324 325 332 340 339 331 325 334 351 334 319 8 2 360 349 337 338 4 28 316 293 272 204 196 228 237 225 163 164 164 215 218 227 176 153 147 141 182 181 135 249 252 166 130 222 263 264 215 155 199 161 173 228 199 172 213 309 249 200 199 201 207 239 325 17 25 344 334 44 18 293 316 320 271 293 338 304 316 326 282 255 206 187 200 203 197 200
328 324 328 336 348 348 343 342 354 348 334 322 0 348 346 335 323 331 83 43 335 288 303 162 171 238 247 197 159 141 72 279 253 205 161 172 166 133 152 223 76 242 227 158 132 229 268 293 356 243 233 159 174 237 231 171 136 315 248 202 183 158 145 169 147 85 98 261 295 47 151 251 317 318 264 288 325 297 303 307 278 274 250 191 198 202 191 193
327 326 333 338 348 352 348 348 343 346 340 335 342 340 338 332 312 228 79 37 333 279 259 251 163 148 241 227 120 104 127 273 286 81 159 179 173 77 148 227 334 243 203 108 351 265 267 319 349 353 132 138 171 237 225 151 123 240 235 163 150 148 155 169 164 167 206 240 312 16 113 207 302 278 266 307 322 294 295 289 274 271 262 229 208 205 196 191
329 325 331 333 341 342 336 335 338 349 342 332 336 335 333 329 269 143 78 68 285 282 197 254 262 191 269 282 100 118 205 240 41 305 266 167 169 57 159 225 199 217 206 119 239 267 255 298 286 222 104 146 198 218 193 144 135 241 210 148 158 177 166 149 137 169 238 76 300 322 51 166 279 274 291 340 304 278 279 275 272 269 263 247 218 207 199 193
327 323 322 325 332 328 323 328 328 331 337 334 332 330 329 323 147 76 74 108 265 297 95 331 285 280 328 8 53 22 239 103 151 266 3 120 194 62 173 217 165 185 228 121 197 248 239 231 216 163 135 202 228 220 173 158 187 234 161 120 51 54 92 100 116 142 60 71 240 270 245 168 272 279 299 355 271 259 265 269 270 270 268 257 229 211 196 191
323 320 316 319 324 321 319 318 311 322 330 328 326 327 328 349 81 63 72 215 275 288 291 20 309 285 54 55 319 316 220 243 278 294 45 72 322 27 156 192 102 121 331 39 205 245 283 260 174 157 179 205 215 202 169 174 185 153 101 74 27 25 41 46 78 107 73 306 248 247 203 150 299 280 252 217 223 231 258 284 288 290 294 284 253 216 182 180
321 318 316 316 317 314 315 317 318 323 323 324 327 332 349 72 63 83 155 248 262 313 346 349 303 317 101 144 276 301 215 278 307 160 178 269 336 11 35 311 46 63 4 352 288 296 329 318 200 244 222 166 168 199 36 25 69 83 79 68 41 341 8 18 358 44 117 260 261 244 194 126 118 266 247 247 263 253 247 274 290 300 308 306 286 240 185 183
324 317 317 316 309 298 290 297 315 322 322 326 333 355 91 47 23 126 271 301 288 303 332 295 291 327 328 173 261 277 222 282 290 186 192 205 224 238 200 201 172 20 331 295 293 332 320 247 263 302 263 144 132 242 337 2 31 79 97 80 75 332 3 350 301 320 213 252 254 218 182 122 221 252 257 264 278 277 252 260 287 305 320 328 323 321 106 189
330 318 319 315 307 297 287 294 311 317 320 327 342 47 81 69 64 229 281 330 269 246 276 271 283 330 14 49 352 307 288 278 289 249 211 182 214 247 266 212 163 135 267 230 319 351 326 302 324 336 288 173 134 162 247 311 41 140 149 122 125 125 56 281 270 285 257 267 272 231 211 277 276 272 274 270 283 301 303 303 337 9 12 2 353 18 73 78
321 315 312 306 300 293 283 286 300 307 317 335 27 65 59 83 227 247 279 277 261 309 328 299 306 344 41 66 355 323 11 330 313 318 268 62 220 263 291 265 180 145 149 159 217 171 119 306 293 192 271 319 125 159 167 160 170 201 179 131 139 154 156 230 230 206 252 274 298 291 234 191 203 262 286 283 307 340 336 354 54 51 39 35 24 23 45 75
296 296 299 297 296 289 270 267 281 297 315 7 66 66 96 204 258 262 251 259 282 336 324 339 23 27 4 350 305 6 46 300 323 357 167 165 194 227 249 266 227 133 120 160 239 187 150 253 258 254 289 89 116 193 158 125 103 257 169 109 150 182 157 188 198 177 191 248 303 289 230 220 200 248 312 336 32 22 5 31 54 49 41 49 38 23 28 39
280 293 291 287 295 280 249 253 262 284 326 64 66 59 176 211 233 171 219 253 280 316 330 0 36 46 343 319 333 352 7 312 349 14 351 262 203 233 250 268 258 159 151 167 208 176 140 267 281 317 346 61 166 237 160 123 149 243 109 157 234 189 128 122 260 316 85 104 278 266 246 290 339 14 334 24 50 25 15 36 46 42 43 51 43 25 29 32
300 305 277 275 300 284 242 241 232 243 49 77 83 192 220 214 189 181 238 322 347 58 65 29 354 42 337 326 322 330 351 2 7 22 335 327 320 290 304 300 304 266 199 181 213 207 148 255 290 357 284 287 140 77 24 20 123 119 153 222 239 40 87 113 170 1 45 184 274 282 213 277 349 265 320 32 56 31 21 33 40 39 38 39 35 29 28 27
327 317 298 300 329 16 331 241 214 186 68 72 75 256 231 208 184 182 315 330 315 67 80 112 281 94 147 307 286 302 348 356 345 3 336 326 286 253 324 303 335 3 320 171 173 283 125 234 288 276 200 289 7 70 1 335 21 108 157 187 114 99 301 11 103 166 278 233 281 306 267 245 213 216 251 73 93 78 54 46 49 49 41 27 16 23 28 27
351 350 2 14 35 34 4 315 203 70 65 62 315 267 248 253 318 353 341 336 91 86 80 204 211 22 249 197 236 290 351 359 339 354 333 334 296 285 79 347 320 356 349 93 112 310 67 142 275 284 233 303 2 52 213 312 345 21 55 34 44 135 165 134 111 168 203 225 250 303 309 268 233 207 157 152 168 142 106 83 77 74 59 36 20 20 24 28
15 50 350 4 21 4 342 339 52 59 63 170 194 217 280 291 327 340 338 348 52 121 177 207 183 323 266 235 216 284 355 356 324 331 251 303 314 329 26 25 334 344 356 54 80 333 37 104 247 295 319 315 345 212 175 173 315 15 25 13 6 49 107 74 12 124 141 181 194 245 285 268 257 215 153 159 173 158 133 117 124 139 133 98 41 25 21 21
30 57 292 0 11 341 338 16 50 57 102 94 176 247 310 320 300 314 320 341 352 233 158 160 172 183 197 189 274 250 332 323 273 163 256 294 301 317 7 12 330 330 358 27 36 39 58 125 196 294 322 269 249 247 203 181 166 144 153 173 153 152 106 88 301 314 95 166 177 165 241 272 272 290 165 175 173 171 152 135 140 147 128 113 70 34 32 34
50 57 290 2 1 336 36 57 346 32 103 87 317 265 296 315 278 303 314 346 6 328 78 121 170 168 168 181 216 195 101 277 254 170 208 265 102 166 325 348 349 342 57 22 298 228 141 103 123 259 259 234 250 260 267 274 120 114 118 131 121 119 108 127 210 259 300 245 165 130 179 271 274 313 323 270 217 207 191 128 96 75 55 61 60 46 49 55
79 249 291 2 356 345 87 50 320 9 39 269 292 274 288 318 336 336 334 354 6 351 21 29 196 149 179 184 154 146 118 212 233 203 229 260 76 51 341 354 359 7 60 28 304 300 81 72 61 300 291 305 300 287 299 347 82 91 40 44 91 111 123 145 176 169 195 247 152 126 236 265 279 316 324 294 299 310 324 11 38 43 26 38 63 65 61 56
214 250 267 3 5 48 110 68 294 358 303 303 349 326 308 315 358 355 324 315 323 325 27 339 255 230 176 135 119 170 161 153 236 261 301 282 41 32 4 358 359 5 14 234 249 304 321 5 89 31 338 333 339 348 342 335 36 99 87 40 77 99 95 87 88 93 184 235 166 162 232 243 256 320 338 332 342 347 347 359 18 39 36 37 57 65 66 59
348 302 271 354 15 47 116 157 144 173 272 329 346 317 320 325 315 301 261 282 314 215 149 320 313 61 38 50 59 29 53 89 259 297 24 354 306 355 3 354 360 7 342 343 76 160 242 198 144 144 209 230 266 280 259 280 320 104 132 104 59 78 94 87 35 92 184 251 164 159 222 258 273 336 336 330 354 352 344 354 6 22 32 36 50 58 63 62
26 3 309 335 10 41 76 68 84 112 216 29 342 301 289 300 301 293 256 19 357 4 60 358 351 44 34 35 55 25 6 17 13 28 29 344 310 315 338 337 2 14 6 14 19 44 130 80 177 165 188 205 208 227 225 187 210 264 225 150 150 129 115 113 105 143 194 222 243 205 201 255 282 307 312 318 5 4 335 350 353 349 360 16 37 44 50 57
66 74 16 342 339 16 26 10 37 41 303 142 211 298 305 297 306 318 336 47 19 26 63 19 15 52 39 30 71 43 336 347 20 53 29 320 283 291 312 314 6 16 18 16 3 32 83 353 271 173 209 226 212 226 237 191 201 237 237 185 177 182 152 130 159 212 175 160 266 249 188 215 256 259 278 294 327 107 222 325 318 322 344 356 16 31 38 42
55 120 68 38 298 330 18 346 355 5 344 275 188 343 351 349 348 330 322 356 25 34 65 20 15 31 351 66 104 115 336 356 5 29 325 314 305 319 331 329 5 15 24 19 1 52 95 282 257 208 253 255 233 237 248 231 220 223 217 205 191 187 187 186 207 207 163 180 248 241 187 208 236 239 256 259 228 201 202 234 262 288 336 347 19 40 37 27
42 56 329 16 53 219 246 311 330 29 20 7 1 20 24 5 350 314 300 349 3 4 63 95 340 334 348 86 114 133 236 242 336 306 263 342 349 351 349 332 324 15 30 18 353 44 112 271 274 266 296 291 273 262 252 241 248 247 234 223 202 194 200 208 219 205 184 212 242 232 207 231 237 221 235 253 252 245 246 271 297 335 0 10 39 46 33 19
46 16 328 18 22 302 281 329 14 72 30 14 12 11 28 19 355 317 309 16 16 332 30 91 256 258 107 92 108 145 201 180 171 228 197 77 353 315 289 269 267 345 18 17 330 359 55 286 303 29 349 297 290 294 270 236 236 244 251 240 205 198 211 224 232 202 193 234 257 246 232 255 253 226 234 281 303 299 328 330 334 351 358 20 43 32 12 3
355 273 346 64 359 339 342 338 29 78 33 9 11 337 359 0 337 311 304 337 126 128 355 211 234 273 67 82 116 184 211 176 169 200 185 161 214 221 203 220 243 320 343 354 261 343 52 278 326 31 319 276 283 297 290 285 270 256 242 217 195 196 205 214 217 197 187 203 225 224 236 246 242 225 243 308 328 349 337 309 310 330 334 24 47 14 346 339
1 323 17 70 251 348 13 350 17 66 69 349 331 321 343 318 317 338 330 318 35 48 288 213 183 47 18 10 221 219 209 183 190 209 193 185 214 215 217 240 238 251 265 234 244 219 166 218 269 175 262 270 264 263 295 348 310 270 236 194 193 205 208 203 227 225 200 163 156 197 227 218 188 161 173 251 291 299 282 265 269 295 284 291 24 329 307 308